Temp
4 5 5 5 6 5 4 4 4 6 2 4 3 1 1 -1 -2 -1 -1 -3 -4 -5 -6 -5 -5 -5 -5 -4 -3 -4 -4 -4 -5 -5 -6 -6 -6 -7 -7 -7 -7 -8 -8 -8
3 4 3 4 4 4 4 4 4 3 4 3 2 0 -1 -3 -2 -1 -1 -2 -3 -4 -6 -6 -5 -5 -4 -4 -4 -4 -6 -5 -5 -6 -6 -7 -7 -7 -7 -8 -8 -8 -8 -9
2 3 2 1 1 3 1 3 4 4 3 1 1 0 -2 -3 -3 -2 -1 -3 -4 -5 -5 -5 -5 -5 -5 -5 -5 -6 -5 -5 -6 -6 -7 -7 -8 -8 -8 -8 -9 -9 -9 -9
1 1 3 3 2 3 3 4 3 3 2 1 0 -2 -4 -5 -6 -4 -1 -3 -4 -5 -5 -5 -5 -5 -5 -6 -6 -6 -6 -6 -7 -7 -8 -8 -8 -9 -9 -9 -9 -9 -9 -9
0 3 2 2 4 3 4 5 1 2 1 -0 -2 -2 -3 -5 -7 -7 -6 -6 -6 -5 -5 -5 -5 -5 -6 -7 -6 -7 -7 -7 -8 -8 -8 -9 -9 -9 -9 -10 -9 -9 -9 -9
2 2 3 2 3 2 2 1 0 1 1 0 -2 -3 -2 -6 -7 -8 -8 -7 -7 -6 -6 -6 -6 -6 -7 -7 -7 -7 -8 -8 -8 -9 -9 -9 -10 -10 -10 -10 -10 -9 -9 -9
-1 1 1 1 2 2 0 2 -0 -0 -1 -5 -5 -5 -7 -8 -9 -9 -8 -8 -7 -7 -7 -7 -7 -7 -8 -8 -8 -8 -9 -9 -10 -10 -10 -10 -10 -10 -10 -10 -10 -10 -9 -9
-4 -4 -1 0 1 1 -1 -2 -1 -4 -2 -7 -5 -8 -8 -8 -8 -8 -8 -8 -8 -8 -9 -8 -8 -8 -9 -9 -9 -10 -10 -10 -10 -11 -11 -11 -11 -10 -10 -10 -10 -10 -10 -10
-0 1 -0 -2 -3 -2 -3 -1 -3 -5 -4 -5 -7 -7 -7 -7 -8 -8 -8 -9 -8 -9 -9 -9 -9 -9 -9 -10 -10 -10 -10 -11 -11 -11 -11 -11 -11 -10 -10 -10 -11 -11 -11 -10
0 1 -1 -2 -3 -3 -3 -3 -4 -5 -7 -7 -8 -6 -6 -7 -7 -9 -9 -9 -9 -10 -10 -10 -10 -10 -10 -10 -11 -11 -11 -11 -11 -12 -11 -11 -11 -11 -11 -11 -11 -11 -11 -11
0 -1 -2 -2 -3 -4 -4 -4 -5 -5 -6 -7 -7 -6 -7 -8 -9 -9 -9 -10 -10 -10 -10 -11 -11 -11 -11 -11 -11 -12 -12 -12 -12 -12 -12 -11 -11 -11 -11 -11 -11 -10 -9 -9
-1 -3 -5 -5 -5 -5 -5 -5 -6 -6 -6 -6 -6 -7 -9 -10 -10 -10 -10 -10 -10 -11 -11 -11 -11 -11 -12 -12 -12 -12 -12 -12 -12 -12 -12 -12 -12 -11 -11 -10 -9 -8 -8 -8
-6 -9 -7 -7 -7 -7 -7 -6 -6 -7 -7 -8 -9 -10 -10 -13 -11 -9 -10 -10 -10 -11 -11 -11 -12 -12 -12 -12 -13 -13 -13 -13 -12 -12 -12 -12 -12 -12 -12 -11 -11 -10 -9 -8
-10 -11 -8 -9 -9 -9 -8 -9 -8 -10 -10 -11 -11 -10 -10 -10 -9 -10 -11 -11 -11 -11 -12 -12 -12 -12 -12 -12 -13 -13 -13 -13 -12 -12 -12 -12 -12 -12 -12 -12 -12 -12 -10 -10
-9 -11 -11 -10 -10 -10 -10 -10 -10 -11 -11 -12 -11 -11 -10 -11 -11 -11 -11 -11 -12 -12 -12 -13 -13 -12 -13 -13 -13 -13 -13 -13 -12 -12 -12 -12 -12 -13 -13 -13 -12 -12 -12 -11
-8 -8 -9 -9 -10 -10 -11 -13 -13 -12 -14 -13 -12 -12 -11 -11 -11 -12 -12 -12 -13 -12 -13 -13 -13 -12 -13 -13 -13 -13 -12 -13 -11 -12 -12 -13 -13 -14 -13 -13 -13 -12 -12 -12
-11 -10 -12 -11 -11 -13 -14 -17 -16 -16 -15 -14 -12 -12 -11 -12 -12 -12 -13 -13 -13 -13 -13 -13 -12 -13 -13 -12 -12 -12 -12 -12 -12 -12 -12 -13 -14 -14 -14 -13 -12 -12 -12 -12
-14 -15 -16 -16 -14 -15 -15 -15 -14 -13 -13 -11 -11 -12 -12 -13 -13 -13 -13 -13 -13 -13 -12 -12 -12 -12 -12 -12 -12 -12 -12 -12 -12 -13 -13 -14 -14 -14 -14 -14 -14 -13 -13 -12
-14 -16 -16 -15 -13 -15 -16 -14 -12 -11 -11 -11 -12 -12 -12 -13 -13 -13 -14 -14 -14 -14 -12 -12 -12 -12 -13 -12 -12 -12 -12 -12 -12 -13 -14 -15 -14 -15 -15 -15 -15 -14 -13 -13
-14 -14 -13 -13 -12 -11 -13 -12 -12 -12 -12 -12 -12 -13 -13 -13 -14 -14 -14 -14 -13 -13 -13 -13 -13 -13 -12 -12 -12 -12 -12 -12 -13 -13 -14 -14 -15 -15 -15 -15 -15 -15 -14 -14
-16 -14 -12 -12 -13 -12 -11 -11 -12 -12 -12 -13 -13 -13 -13 -14 -14 -15 -15 -16 -12 -13 -13 -13 -13 -12 -12 -11 -12 -12 -12 -13 -13 -14 -15 -15 -16 -15 -15 -15 -15 -15 -14 -14
-17 -16 -14 -13 -13 -14 -12 -12 -12 -12 -12 -13 -13 -14 -14 -14 -14 -14 -14 -14 -13 -13 -13 -12 -12 -12 -11 -11 -12 -12 -13 -13 -14 -15 -15 -15 -16 -16 -15 -15 -15 -14 -14 -13
-15 -13 -13 -14 -14 -13 -13 -13 -12 -12 -12 -13 -13 -14 -13 -14 -14 -15 -16 -13 -13 -13 -13 -12 -12 -11 -11 -12 -13 -13 -14 -14 -15 -15 -15 -15 -15 -15 -15 -15 -14 -14 -14 -13
-14 -14 -13 -13 -14 -14 -15 -12 -12 -12 -12 -13 -13 -13 -13 -13 -13 -13 -13 -13 -14 -13 -13 -13 -12 -11 -12 -13 -13 -14 -14 -15 -15 -15 -15 -15 -15 -15 -15 -14 -14 -13 -13 -12
-13 -13 -14 -15 -15 -14 -12 -12 -12 -13 -13 -13 -12 -12 -13 -13 -13 -13 -14 -14 -14 -13 -13 -13 -13 -13 -14 -14 -14 -14 -15 -15 -15 -15 -15 -15 -15 -15 -14 -14 -14 -14 -13 -12
-14 -14 -13 -12 -12 -11 -11 -12 -12 -12 -12 -13 -12 -12 -12 -13 -13 -13 -14 -14 -14 -14 -14 -14 -14 -14 -14 -14 -14 -15 -15 -15 -15 -15 -15 -15 -15 -15 -14 -14 -13 -13 -12 -11
-13 -12 -13 -13 -12 -12 -12 -12 -12 -12 -11 -12 -12 -12 -12 -13 -13 -13 -14 -14 -14 -15 -15 -15 -15 -15 -15 -14 -15 -15 -15 -15 -16 -15 -15 -15 -15 -15 -14 -13 -13 -12 -11 -10
Height
760 754 751 748 742 746 753 746 746 727 751 738 741 748 748 749 748 745 746 749 751 755 758 761 764 768 772 777 781 786 792 796 799 802 803 805 807 808 809 811 813 814 814 813
762 755 754 749 746 746 744 738 738 741 737 738 742 747 752 754 750 746 746 748 750 754 757 760 762 766 771 776 781 786 790 795 797 799 801 803 804 806 807 808 809 810 809 808
763 755 757 765 756 742 750 739 732 736 739 744 744 748 753 754 752 748 745 747 749 752 755 759 762 765 770 775 781 785 790 793 795 797 799 800 802 803 805 805 805 806 805 804
771 762 751 742 737 736 736 734 735 735 739 745 747 753 756 757 757 752 746 748 751 753 757 761 764 768 772 777 781 786 789 791 794 795 797 798 800 801 802 802 802 801 800 798
774 755 753 743 729 733 730 721 735 733 742 746 751 754 753 756 757 756 753 752 754 756 759 763 766 770 773 778 783 786 789 791 792 794 795 797 798 798 798 797 796 794 793 792
761 755 746 743 733 736 736 744 739 740 741 742 749 756 748 756 757 758 757 757 758 760 763 766 770 772 776 780 784 786 788 790 792 793 794 795 794 794 793 792 791 790 788 787
774 760 754 736 736 736 753 743 739 740 742 753 756 756 758 759 760 761 761 761 763 764 767 771 773 775 778 781 784 786 788 789 790 791 791 790 790 789 788 787 786 785 783 782
790 791 766 738 739 743 743 741 739 745 743 753 753 758 759 761 763 764 765 767 768 769 772 775 776 778 780 783 784 785 786 787 788 788 787 787 786 785 784 783 781 779 778 776
758 746 739 742 744 743 743 740 742 746 745 749 754 757 759 762 764 767 768 769 771 773 774 776 778 779 780 782 783 784 785 786 785 785 784 783 782 781 780 779 777 776 774 772
743 734 740 743 744 743 742 743 743 746 749 750 753 755 759 762 766 769 770 772 773 775 776 778 779 780 781 782 782 783 783 782 781 781 780 779 779 778 776 775 774 772 770 769
736 740 743 743 744 745 743 743 745 747 748 749 752 756 760 764 767 769 771 773 774 775 776 778 779 779 780 780 780 780 780 780 779 778 777 776 775 774 772 771 770 767 765 764
741 748 751 750 750 748 747 746 746 747 749 751 753 757 760 764 767 769 770 772 773 775 776 777 778 778 779 779 779 779 778 778 777 776 775 774 772 769 769 767 765 763 761 760
753 754 752 751 750 750 749 747 748 749 751 754 756 758 761 764 766 768 770 772 773 774 776 776 777 777 777 777 777 777 776 776 775 774 773 771 769 768 764 761 761 758 757 755
752 754 753 753 755 752 750 750 751 753 755 756 758 760 762 764 767 769 771 772 773 774 774 775 775 775 775 774 774 775 774 774 773 771 770 768 767 764 762 759 756 753 752 751
751 752 754 754 754 754 754 754 756 758 760 761 763 764 765 767 769 770 772 773 773 774 774 773 773 772 772 772 772 772 772 770 769 768 767 766 764 761 758 756 754 751 748 746
750 751 753 753 755 755 756 758 759 761 762 763 764 765 766 768 769 771 772 773 773 773 773 772 771 770 770 770 770 770 769 768 767 766 764 762 760 758 756 754 751 749 747 745
754 755 758 756 755 757 758 759 759 761 762 763 764 765 767 768 769 771 771 772 772 771 771 769 768 768 768 768 768 767 766 765 765 763 762 760 758 756 754 751 749 747 744 742
746 747 748 750 753 757 758 758 759 760 761 762 764 765 766 768 768 769 769 769 769 768 767 766 765 765 766 766 766 765 764 763 761 761 759 757 755 753 751 749 746 744 741 739
745 746 747 748 750 753 755 757 758 760 761 762 764 764 765 766 766 767 767 767 766 765 764 764 764 765 764 764 763 762 761 760 759 758 756 754 752 750 748 746 743 741 738 735
745 746 747 749 751 752 754 756 758 759 761 762 763 764 764 764 764 765 765 764 764 763 762 762 762 761 761 760 760 758 758 757 756 754 753 751 749 747 744 743 740 738 735 731
745 746 747 749 751 752 754 755 757 758 760 761 762 762 763 763 763 763 763 762 761 761 760 760 759 758 757 756 755 754 754 754 753 751 749 747 745 743 741 738 736 733 730 727
745 746 747 749 751 752 753 755 757 758 759 760 761 762 762 761 761 761 760 760 759 759 758 758 757 755 753 750 751 752 752 751 750 748 746 744 742 739 737 735 732 729 726 722
743 745 747 749 750 751 753 754 755 756 757 758 759 760 760 759 759 759 758 758 758 757 757 756 755 753 749 750 750 750 749 748 747 745 743 740 738 736 734 731 728 725 722 718
742 744 746 748 750 751 752 752 754 755 756 757 757 758 758 757 757 757 756 756 757 756 755 755 754 752 749 750 749 748 747 746 744 742 739 738 735 733 730 727 724 721 717 713
740 743 745 747 748 748 750 751 752 754 755 755 755 756 756 756 756 756 756 755 755 755 754 753 752 751 749 748 747 746 745 743 741 739 737 734 732 729 727 724 721 717 714 709
737 739 741 743 744 746 748 750 751 752 753 753 754 754 754 754 754 754 754 754 754 753 752 751 750 749 748 746 745 744 743 741 739 736 735 732 730 727 724 721 717 713 709 704
735 737 740 742 743 744 746 748 749 750 751 751 752 752 752 753 753 753 753 753 752 751 751 750 748 747 746 745 744 742 740 738 736 734 732 729 726 724 721 717 713 709 704 698
Wind_Speed
8 11 14 14 16 9 10 15 7 16 4 6 4 4 5 6 7 6 2 4 6 6 6 12 17 19 22 25 25 22 17 14 13 12 10 10 10 10 10 12 14 14 15 17
14 13 13 14 12 12 14 16 12 13 15 3 3 2 3 4 5 4 1 4 5 7 8 13 17 20 22 24 24 19 14 14 11 10 10 10 10 10 11 12 14 16 16 16
7 3 4 5 7 7 2 3 5 6 4 1 1 2 3 6 5 5 1 4 6 8 10 14 18 23 23 24 18 14 14 12 11 10 10 10 10 10 12 14 14 15 15 14
4 1 5 7 5 7 6 5 6 3 2 2 2 2 0 2 4 7 2 4 5 7 11 14 18 20 21 16 14 14 11 10 9 9 9 9 9 11 13 13 14 13 13 13
2 2 5 10 1 1 3 6 4 5 5 3 3 3 4 2 3 4 4 3 6 10 14 18 20 18 14 15 12 11 11 9 9 9 9 9 11 12 13 12 12 12 13 14
1 4 4 7 0 2 1 4 5 2 1 3 3 1 2 2 3 4 8 9 13 14 16 17 13 13 14 13 11 9 8 8 8 9 9 11 12 12 12 10 12 13 14 14
5 5 7 5 2 2 5 5 5 3 2 3 3 3 3 5 5 6 10 14 15 16 16 13 12 12 11 9 7 7 7 7 7 8 10 11 10 9 10 12 12 13 16 17
1 1 6 5 3 4 3 1 3 1 1 2 3 5 5 5 6 6 9 11 12 15 13 10 8 8 8 6 5 5 5 7 7 8 10 9 10 10 11 11 13 15 17 20
7 5 1 2 2 2 1 1 2 2 1 4 5 5 6 5 5 5 8 9 9 11 10 7 5 4 4 3 3 3 5 6 7 8 9 9 9 11 13 12 15 17 17 19
1 1 2 2 1 2 1 1 2 0 3 5 5 7 5 6 5 5 8 8 9 9 7 5 4 3 3 3 3 4 5 7 9 10 10 9 11 12 13 15 17 16 17 17
4 3 2 0 3 4 3 1 3 2 2 4 6 6 5 5 5 7 8 7 6 6 6 5 2 1 2 4 4 5 7 8 9 9 11 12 11 12 16 17 16 19 20 22
2 1 2 2 3 4 3 2 3 3 3 4 4 5 4 5 9 9 10 8 6 4 3 3 2 3 4 5 5 6 7 7 9 11 11 10 15 17 16 14 15 16 18 19
3 2 2 3 1 4 3 2 3 4 4 5 4 7 9 4 8 9 8 6 5 4 3 3 3 4 4 6 6 7 8 9 9 10 12 13 12 17 16 18 15 13 13 14
1 3 3 3 1 4 5 7 10 10 9 7 7 10 8 9 7 7 7 5 5 3 3 4 5 6 6 7 6 6 8 9 10 11 11 11 14 14 14 15 15 17 15 12
1 2 3 2 3 4 5 4 7 6 4 6 7 8 8 7 6 5 6 4 2 3 5 6 7 8 6 5 5 6 8 10 8 10 7 13 16 17 14 14 13 15 17 14
4 4 4 4 4 4 4 3 4 3 3 3 6 6 5 4 4 5 4 3 3 5 5 8 10 7 6 5 5 7 8 8 9 10 14 18 16 15 13 12 13 13 13 14
4 1 0 2 4 2 3 2 3 3 5 5 6 6 6 5 3 3 4 5 6 9 11 12 12 7 6 6 7 8 9 12 10 11 16 16 16 15 14 13 13 14 14 15
3 3 5 4 6 5 2 3 4 6 4 5 7 7 6 5 3 2 4 7 10 12 12 10 8 5 4 6 9 11 12 15 12 13 16 16 16 14 13 15 15 14 16 17
3 4 5 5 9 7 5 5 6 5 5 6 8 7 4 3 3 3 5 8 10 12 9 5 2 6 9 10 11 13 15 13 12 14 15 14 16 15 17 16 16 16 16 17
2 3 6 7 7 6 6 5 7 7 7 7 6 5 4 3 3 4 6 9 12 11 8 7 7 9 11 12 13 14 15 14 13 15 15 15 16 18 17 16 15 17 18 19
4 6 8 9 6 5 6 8 9 9 8 6 6 5 3 2 3 5 6 8 7 5 6 8 12 13 15 18 15 16 11 10 13 14 16 17 18 17 18 17 17 18 19 20
4 5 9 9 9 7 8 8 7 6 6 6 6 5 4 3 4 6 7 9 9 8 8 9 11 15 18 11 4 3 8 11 12 14 16 16 16 17 17 18 19 20 20 21
10 8 9 10 9 7 9 8 8 6 6 6 6 5 5 5 5 5 5 3 6 8 12 9 10 16 4 1 6 9 9 10 13 15 16 16 16 15 17 19 19 20 21 22
9 10 9 9 8 7 5 9 8 7 6 5 5 5 6 6 6 5 4 5 7 8 7 9 13 12 3 10 10 10 9 13 15 15 15 14 15 15 17 18 20 22 22 22
11 11 11 11 10 9 8 7 7 8 7 6 6 5 5 5 5 3 6 7 7 10 11 10 11 11 12 12 11 10 12 15 15 14 16 15 16 17 18 18 20 22 23 26
14 14 16 15 12 9 9 9 8 5 6 5 4 3 4 4 4 4 4 6 8 8 11 11 10 11 11 11 10 11 15 14 13 14 13 16 17 16 18 19 22 23 26 28
12 10 10 10 12 11 11 11 9 9 7 6 5 3 3 3 3 4 4 7 8 7 9 10 12 10 10 10 11 14 13 13 12 13 16 16 15 16 18 21 23 25 28 28
Wind_Direction
272 281 282 269 261 235 214 241 234 267 227 290 313 296 314 336 328 330 344 167 171 166 160 159 156 160 166 174 172 174 178 192 208 213 217 220 232 241 245 250 256 258 267 270
286 278 262 267 261 256 249 253 251 262 279 119 62 19 340 333 343 1 11 179 167 156 160 163 160 159 162 164 168 175 181 202 204 209 216 227 236 240 246 247 257 268 267 273
278 311 306 309 235 251 278 256 221 234 232 35 164 318 335 328 339 330 307 179 166 169 167 164 161 160 161 168 171 172 194 199 208 213 223 231 237 240 246 262 266 264 267 270
267 262 242 247 200 195 213 244 206 202 157 188 244 159 122 324 304 311 341 145 143 140 146 153 153 154 158 163 167 182 204 205 214 223 228 232 240 253 262 267 267 267 271 279
216 220 300 305 167 204 180 260 190 173 153 172 176 177 238 8 353 316 350 76 117 141 143 148 153 153 159 163 190 194 194 208 217 223 228 242 257 268 273 271 272 275 287 292
271 273 260 238 192 98 19 289 171 191 117 153 127 39 225 56 53 46 67 95 115 123 128 137 138 154 161 164 173 188 203 217 221 229 245 264 274 277 280 278 284 291 293 293
256 267 279 261 178 202 93 246 166 170 232 150 177 193 148 101 71 82 94 102 112 115 116 123 136 146 146 161 180 196 205 211 232 253 271 280 283 281 285 292 295 298 295 298
73 125 278 157 97 175 239 23 151 185 228 179 140 123 127 116 111 101 94 98 110 110 111 115 129 147 148 165 184 204 226 246 257 274 284 281 279 285 293 301 306 305 303 301
192 220 28 253 116 309 291 157 192 145 235 159 145 156 149 141 126 116 118 113 116 122 116 111 122 146 152 166 198 226 246 251 276 290 293 289 289 298 305 307 308 303 299 299
301 42 25 38 190 238 329 262 97 151 194 154 148 148 131 138 138 131 138 130 136 135 132 128 125 138 158 200 248 263 265 288 301 306 310 301 296 299 299 302 304 298 294 287
256 72 5 272 9 353 347 105 110 94 139 149 130 128 138 135 140 151 144 137 138 143 145 146 151 200 275 284 288 282 289 299 305 304 308 308 302 305 306 302 293 284 280 282
232 152 195 269 346 355 3 340 155 119 89 84 108 126 127 136 154 155 147 144 145 146 159 182 258 274 284 276 280 282 292 302 309 310 312 310 310 312 311 295 289 287 287 283
226 205 216 287 318 352 315 28 81 97 101 119 101 136 136 137 154 153 151 157 170 175 189 244 264 277 271 280 280 283 294 305 311 307 306 308 307 313 306 314 305 294 289 286
92 65 14 26 288 346 64 65 91 86 85 99 109 126 129 134 141 152 170 169 168 208 248 263 277 285 285 280 263 268 293 295 295 301 311 309 312 302 298 300 306 311 316 307
164 154 184 157 68 57 74 82 80 76 66 66 82 107 126 126 149 159 159 165 224 269 275 278 280 293 280 251 257 285 300 305 310 319 324 317 312 312 305 299 294 298 311 315
123 114 134 123 125 111 96 70 107 113 99 106 109 109 117 118 142 162 183 247 268 285 298 292 288 300 254 244 272 300 308 300 306 313 319 326 323 316 305 297 295 296 299 302
106 178 103 198 184 187 188 180 162 167 152 141 137 135 131 128 142 194 238 262 279 295 299 291 290 273 258 259 290 302 313 316 300 304 322 323 321 312 303 295 294 296 294 302
159 172 177 172 174 167 163 182 168 164 166 156 154 155 157 179 211 263 275 278 293 299 304 296 284 249 263 293 297 300 302 310 297 302 318 318 320 314 307 305 297 293 298 303
188 190 176 179 168 158 154 156 164 162 161 166 168 178 195 216 240 271 291 298 302 305 330 313 255 272 284 295 298 297 304 297 287 305 314 312 311 312 314 312 306 300 298 299
143 149 147 137 147 150 152 153 158 159 164 173 180 183 207 225 258 279 293 296 303 299 302 285 300 299 295 300 297 295 296 287 288 307 312 314 308 312 312 309 302 302 304 302
176 159 152 156 150 140 161 168 170 173 178 191 213 221 233 255 279 287 292 307 341 337 331 308 300 303 303 303 293 288 285 284 301 308 309 311 312 311 314 314 312 310 309 308
176 167 164 164 163 155 163 170 177 178 190 206 224 239 264 293 295 298 298 284 314 308 309 322 309 307 308 286 245 283 297 300 304 308 309 311 310 312 313 316 316 315 313 313
184 180 173 178 179 179 179 187 193 203 211 224 239 254 270 300 304 296 313 331 329 325 312 318 319 314 138 32 346 323 309 307 313 312 312 311 311 310 311 314 315 316 316 315
185 176 180 183 177 169 187 206 210 219 229 239 257 270 280 296 310 307 309 307 305 302 328 325 316 320 333 336 327 317 305 315 316 314 315 312 309 313 315 318 321 323 321 319
193 186 178 182 196 212 211 201 210 225 237 254 269 279 280 276 263 288 305 310 315 317 318 323 320 317 322 326 319 313 312 317 318 318 313 316 318 319 319 320 321 321 316 316
187 193 201 206 216 219 213 205 216 222 222 242 264 271 276 271 277 298 307 306 311 315 310 316 323 325 314 315 317 313 318 318 315 318 318 316 316 317 320 322 324 323 325 326
199 199 203 216 226 222 216 216 220 228 226 237 255 254 265 249 267 292 286 300 304 312 317 320 321 323 320 318 312 320 323 323 321 320 315 316 318 321 323 325 325 324 329 330